Date String (YYYY-MM-DD hh:mm:ss) UTC,Instrument flags,Ambient pressure (hPa),Sample flow (lpm),Bypass flow (lpm),Sample temperature (°C),Ambient temperature (°C),ASC tube jacket temperature (°C),LED temperature (°C),Box temperature (°C),Sample RH (%),Span deviation,Mass concentration (μg/m³),Mass concentration (μg/m³),Mass concentration (μg/m³)
DateTimeUTC,F1_M11,P_M11,Q1_M11,Q2_M11,T1_M11,T2_M11,T3_M11,T4_M11,T5_M11,U1_M11,ZSPAN_M11,X2_M11,X0_M11,X1_M11
2022-06-26 16:00:00,,0839.0,5.01,0.00,31.1,30.1,00.0,39.9,32.9,17.5,0000.0,0005.05,0013.14,0004.24
2022-06-26 16:01:00,,0839.0,4.99,0.00,31.1,30.1,00.0,39.9,32.9,17.6,0000.0,0005.02,0013.66,0004.24
2022-06-26 16:02:00,,0839.0,5.00,0.00,31.1,30.1,00.0,39.9,32.9,17.8,0000.0,0005.01,0013.83,0004.25
2022-06-26 16:03:00,,0839.0,5.00,0.00,31.1,30.1,00.0,39.9,32.9,17.9,0000.0,0005.04,0013.94,0004.27
2022-06-26 16:04:00,,0839.0,5.00,0.00,31.1,29.8,00.0,39.9,32.8,17.8,0000.0,0005.10,0014.44,0004.28
2022-06-26 16:05:00,,0839.0,5.00,0.00,31.0,28.7,00.0,39.8,32.5,17.6,0000.0,0005.13,0014.80,0004.30
2022-06-26 16:06:00,,0839.0,5.00,0.00,30.9,28.1,00.0,39.7,32.3,17.8,0000.0,0005.14,0015.24,0004.33
2022-06-26 16:07:00,,0839.0,5.00,0.00,30.8,28.0,00.0,39.6,32.2,18.0,0000.0,0005.10,0015.43,0004.35
2022-06-26 16:08:00,,0839.0,4.99,0.00,30.7,28.0,00.0,39.6,32.1,17.9,0000.0,0005.14,0014.70,0004.36
2022-06-26 16:09:00,,0839.0,4.99,0.00,30.6,28.1,00.0,39.6,32.1,18.0,0000.0,0005.15,0013.50,0004.37
2022-06-26 16:10:00,,0839.0,5.00,0.00,30.6,28.2,00.0,39.5,32.1,18.3,0000.0,0005.17,0014.33,0004.37
2022-06-26 16:11:00,,0839.0,5.01,0.00,30.5,28.4,00.0,39.5,32.1,18.0,0000.0,0005.18,0014.07,0004.37
2022-06-26 16:12:00,,0839.0,5.00,0.00,30.5,28.5,00.0,39.5,32.1,18.0,0000.0,0005.25,0013.65,0004.39
2022-06-26 16:13:00,,0839.0,5.00,0.00,30.5,28.7,00.0,39.5,32.2,18.1,0000.0,0005.30,0013.58,0004.40
2022-06-26 16:14:00,,0839.0,5.00,0.00,30.5,28.8,00.0,39.4,32.2,18.2,0000.0,0005.31,0013.60,0004.39
2022-06-26 16:15:00,,0839.0,5.00,0.00,30.5,28.9,00.0,39.4,32.2,18.2,0000.0,0005.29,0013.09,0004.38
2022-06-26 16:16:00,,0839.0,5.01,0.00,30.5,29.0,00.0,39.4,32.2,18.0,0000.0,0005.26,0012.66,0004.38
2022-06-26 16:17:00,,0839.0,5.00,0.00,30.5,29.1,00.0,39.4,32.2,18.1,0000.0,0005.25,0012.56,0004.37
2022-06-26 16:18:00,,0839.0,5.01,0.00,30.5,29.1,00.0,39.4,32.2,18.1,0000.0,0005.33,0012.60,0004.38
2022-06-26 16:19:00,,0839.0,5.01,0.00,30.5,29.2,00.0,39.4,32.3,18.3,0000.0,0005.31,0012.43,0004.36
2022-06-26 16:20:00,,0839.0,4.99,0.00,30.5,29.2,00.0,39.4,32.3,17.9,0000.0,0005.25,0012.25,0004.33
2022-06-26 16:21:00,,0839.0,5.01,0.00,30.5,29.3,00.0,39.4,32.3,18.1,0000.8,0005.24,0011.16,0004.33
2022-06-26 16:22:00,,0839.0,5.00,0.00,30.5,29.3,00.0,39.4,32.3,18.0,0001.8,0005.27,0010.94,0004.34
2022-06-26 16:23:00,,0839.0,5.00,0.00,30.5,29.4,00.0,39.4,32.3,18.1,0001.2,0005.25,0011.00,0004.35
2022-06-26 16:24:00,,0839.0,4.99,0.00,30.5,29.4,00.0,39.4,32.3,18.0,0001.3,0005.27,0010.94,0004.36
2022-06-26 16:25:00,,0838.9,5.00,0.00,30.5,29.4,00.0,39.4,32.4,18.1,0001.3,0005.29,0010.91,0004.37
2022-06-26 16:26:00,,0838.9,5.00,0.00,30.5,29.5,00.0,39.4,32.4,18.2,0001.4,0005.29,0011.37,0004.38
2022-06-26 16:27:00,,0838.8,4.99,0.00,30.6,29.5,00.0,39.4,32.4,18.0,0001.1,0005.29,0011.46,0004.36
2022-06-26 16:28:00,,0838.9,5.01,0.00,30.6,29.5,00.0,39.4,32.4,17.9,0001.0,0005.31,0011.52,0004.36
2022-06-26 16:29:00,,0838.8,5.00,0.00,30.6,29.6,00.0,39.4,32.4,18.3,0000.9,0005.27,0011.04,0004.35
2022-06-26 16:30:00,,0838.8,5.00,0.00,30.6,29.6,00.0,39.4,32.4,18.2,0000.8,0005.23,0010.74,0004.37
2022-06-26 16:31:00,,0838.8,4.99,0.00,30.6,29.6,00.0,39.4,32.5,17.9,0000.8,0005.29,0010.88,0004.41
2022-06-26 16:32:00,,0838.9,5.02,0.00,30.6,29.6,00.0,39.4,32.5,17.9,0000.1,0005.35,0011.82,0004.45
2022-06-26 16:33:00,,0838.9,4.99,0.00,30.6,29.7,00.0,39.4,32.5,18.2,-000.0,0005.33,0012.29,0004.46
2022-06-26 16:34:00,,0838.9,5.00,0.00,30.7,29.7,00.0,39.4,32.5,18.3,0000.4,0005.30,0011.99,0004.46
2022-06-26 16:35:00,,0838.9,5.00,0.00,30.7,29.7,00.0,39.5,32.5,18.3,0000.8,0005.27,0011.86,0004.46
2022-06-26 16:36:00,,0838.8,5.01,0.00,30.7,29.7,00.0,39.5,32.5,18.2,0000.5,0005.23,0012.08,0004.45
2022-06-26 16:37:00,,0838.8,4.98,0.00,30.7,29.7,00.0,39.5,32.5,18.0,0000.1,0005.24,0012.45,0004.46
2022-06-26 16:38:00,,0838.8,5.00,0.00,30.7,29.8,00.0,39.5,32.6,18.0,-000.1,0005.32,0012.43,0004.48
2022-06-26 16:39:00,,0838.8,5.01,0.00,30.7,29.8,00.0,39.5,32.6,18.1,0000.1,0005.34,0012.59,0004.49
2022-06-26 16:40:00,,0838.8,5.00,0.00,30.7,29.8,00.0,39.5,32.6,17.9,0000.4,0005.34,0012.57,0004.51
2022-06-26 16:41:00,,0838.7,5.00,0.00,30.8,29.8,00.0,39.5,32.6,17.8,0000.7,0005.36,0012.83,0004.51
2022-06-26 16:42:00,,0838.7,5.00,0.00,30.8,29.8,00.0,39.5,32.6,18.1,0001.0,0005.33,0012.91,0004.50
2022-06-26 16:43:00,,0838.7,4.99,0.00,30.8,29.8,00.0,39.6,32.6,18.1,0001.3,0005.28,0012.22,0004.48
2022-06-26 16:44:00,,0838.7,5.00,0.00,30.8,29.9,00.0,39.6,32.6,18.1,0001.3,0005.28,0011.29,0004.47
2022-06-26 16:45:00,,0838.7,5.01,0.00,30.8,29.9,00.0,39.6,32.6,18.1,0001.5,0005.32,0011.49,0004.46
2022-06-26 16:46:00,,0838.7,4.99,0.00,30.8,29.9,00.0,39.6,32.7,17.8,0001.1,0005.36,0011.63,0004.45
2022-06-26 16:47:00,,0838.7,5.01,0.00,30.8,29.9,00.0,39.6,32.7,17.8,0001.3,0005.37,0011.49,0004.46
2022-06-26 16:48:00,,0838.7,5.00,0.00,30.9,29.9,00.0,39.6,32.7,17.7,0001.7,0005.35,0010.94,0004.46
2022-06-26 16:49:00,,0838.8,5.00,0.00,30.9,29.9,00.0,39.6,32.7,17.6,0002.2,0005.30,0010.70,0004.47
2022-06-26 16:50:00,,0838.7,5.02,0.00,30.9,29.5,00.0,39.6,32.6,17.7,0002.0,0005.23,0010.62,0004.47
2022-06-26 16:51:00,,0838.7,5.00,0.00,30.8,28.5,00.0,39.5,32.3,17.9,0001.4,0005.24,0011.11,0004.47
2022-06-26 16:52:00,,0838.7,5.00,0.00,30.7,27.9,00.0,39.4,32.1,17.8,0001.3,0005.23,0011.08,0004.48
2022-06-26 16:53:00,,0838.7,5.00,0.00,30.5,27.8,00.0,39.4,32.0,18.0,0001.4,0005.24,0011.05,0004.49
2022-06-26 16:54:00,,0838.7,4.99,0.00,30.5,27.8,00.0,39.4,32.0,18.2,0001.6,0005.28,0011.24,0004.51
2022-06-26 16:55:00,,0838.7,5.00,0.00,30.4,28.0,00.0,39.3,32.0,18.3,0001.8,0005.30,0011.18,0004.54
2022-06-26 16:56:00,,0838.7,5.00,0.00,30.4,28.1,00.0,39.3,32.0,18.4,0001.2,0005.29,0011.63,0004.55
2022-06-26 16:57:00,,0838.6,5.01,0.00,30.3,28.3,00.0,39.3,32.0,18.3,0001.0,0005.31,0012.22,0004.57
2022-06-26 16:58:00,,0838.6,5.00,0.00,30.3,28.4,00.0,39.3,32.0,18.1,0000.7,0005.37,0012.31,0004.59
2022-06-26 16:59:00,,0838.6,5.00,0.00,30.3,28.6,00.0,39.3,32.0,18.4,0000.0,0005.41,0012.29,0004.60
